Location: Majestic Skies Ranch
(34.0000°N, 105.9300°W)
Time: 16:14:18
(UTC-07:00)

ISS - Visible Passes

Search period start: 30 January 2015 00:00
Search period end: 09 February 2015 00:00
Orbit: 400 x 408 km, 51.6° (Epoch: 30 January)

Date Brightness Start Highest point End Pass type
(mag) Time Alt. Az. Time Alt. Az. Time Alt. Az.
30 Jan -1.2 05:48:24 15° SW 05:48:24 15° SW 05:49:50 10° SSW visible
01 Feb -1.1 19:01:42 10° S 19:02:41 15° SSE 19:02:41 15° SSE visible
02 Feb -0.6 19:44:48 10° WSW 19:45:51 19° WSW 19:45:51 19° WSW visible
03 Feb -3.3 18:52:28 10° SSW 18:55:40 57° SE 18:56:12 49° E visible
04 Feb -2.0 18:00:37 10° S 18:03:21 25° SE 18:06:07 10° ENE visible
04 Feb -1.0 19:37:02 10° W 19:39:06 23° NW 19:39:06 23° NW visible
05 Feb -2.5 18:44:04 10° WSW 18:47:13 47° NW 18:49:12 20° NNE visible
06 Feb -0.5 19:30:02 10° NW 19:31:35 13° NNW 19:31:51 12° NNW visible
07 Feb -1.1 18:36:17 10° W 18:38:49 20° NNW 18:41:20 10° NNE visible
